AirNav   Everest Fuels
 
 1628 users online  

KHOC Highland County Airport
Hillsboro, Ohio, USA

GOING TO HILLSBORO?


FAA INFORMATION EFFECTIVE 27 FEBRUARY 2020

Location

FAA Identifier: HOC
Lat/Long: 39-11-19.5408N 083-32-19.6495W
39-11.325680N 083-32.327492W
39.1887613,-83.5387915
(estimated)
Elevation: 977.3 ft. / 297.9 m (surveyed)
Variation: 05W (1990)
From city: 3 miles SE of HILLSBORO, OH
Time zone: UTC -5 (UTC -4 during Daylight Saving Time)
Zip code: 45133

Airport Operations

Airport use: Open to the public
Control tower: no
ARTCC: INDIANAPOLIS CENTER
FSS: DAYTON FLIGHT SERVICE STATION
NOTAMs facility: DAY (NOTAM-D service available)
Attendance: 0800-1700
Pattern altitude: 1677.3 ft. MSL
Wind indicator: lighted
Segmented circle: no
Lights: ACTVT MIRL RY 05/23 AND REIL RY 05 AND 23 - CTAF.
Beacon: white-green (lighted land airport)
Operates sunset to sunrise.

Airport Communications

CTAF/UNICOM: 123.05
WX AWOS-3: 118.175 (937-393-9038)
WX ASOS at ILN (19 nm NW): PHONE 937-383-7334
  • APCH/DEP SVC PRVDD BY INDIANAPOLIS ARTCC ON FREQS 135.575/290.5 (PORTSMOUTH RCAG).

Nearby radio navigation aids

VOR radial/distance  VOR name  Freq  Var
MXQr144/18.9MIDWEST VOR/DME112.9004W
XUBr237/(33.0)YELLOW BUD VOR112.5005W

 
NDB name  Hdg/Dist  Freq  Var  ID
WEST UNION007/20.035904WAMT .- -- -
COURT HOUSE201/25.741406WCSS -.-. ... ...
WAVERLY279/28.338506WEOP . --- .--.
SPORTYS082/32.224504WPWF .--. .-- ..-.
CINCINNATI091/37.433504WLUK .-.. ..- -.-

Airport Services

Fuel available: 100LL
Parking: hangars and tiedowns
Airframe service: MAJOR
Powerplant service: MAJOR

Runway Information

Runway 5/23

Dimensions: 3520 x 75 ft. / 1073 x 23 m
Surface: asphalt, in good condition
Weight bearing capacity: 
Single wheel: 25.0
Runway edge lights: medium intensity
RUNWAY 5  RUNWAY 23
Latitude: 39-11.136602N39-11.514748N
Longitude: 083-32.609857W083-32.045102W
Elevation: 977.3 ft.930.9 ft.
Traffic pattern: leftleft
Runway heading: 054 magnetic, 049 true234 magnetic, 229 true
Markings: nonprecision, in good conditionnonprecision, in good condition
Visual slope indicator: 2-light PAPI on left (4.00 degrees glide path)
Runway end identifier lights: yesyes
Touchdown point: yes, no lightsyes, no lights
Obstructions: 15 ft. tree, 295 ft. from runway, 200 ft. left of centerline, 6:1 slope to clear
+10' CROPS 0' TO 180' FM, 135' LT.
30 ft. trees, 201 ft. from runway, 250 ft. left of centerline
+12 TREE 80 FM RY END 164 RT OF CNTRLN.

Airport Ownership and Management from official FAA records

Ownership: Publicly-owned
Owner: HIGHLAND COUNTY COMMISSIONERS
HIGHLAND COUNTY COURTHOUSE
HILLSBORO, OH 45133
Phone 937-393-9112
AIRPORT AUTHORITY PRES. BOB JONES
Manager: BOB JONES
9500 NORTH SHORE DRIVE
HILLSBORO, OH 45133
Phone 937-393-9112
ADNL CTC: HOCAIRPORT@CO.HIGHLAND.OH.US

Airport Operational Statistics

Aircraft based on the field: 19
Single engine airplanes: 19
    
Aircraft operations: avg 22/day *
48% transient general aviation
48% local general aviation
3% military
<1% air taxi
* for 12-month period ending 21 September 2018

Additional Remarks

DEER & BIRDS ON AND INVOF ARPT.
FOR CD IF UNA TO CTC ON FSS FREQ, CTC INDIANAPOLIS ARTCC AT 317-247-2411.

Instrument Procedures

NOTE: All procedures below are presented as PDF files. If you need a reader for these files, you should download the free Adobe Reader.

NOT FOR NAVIGATION. Please procure official charts for flight.
FAA instrument procedures published for use from 27 February 2020 at 0901Z to 26 March 2020 at 0900Z.

 
IAPs - Instrument Approach Procedures
RNAV (GPS) RWY 23   download (255KB)
NOTE: Special Take-Off Minimums/Departure Procedures apply   download (276KB)

Other nearby airports with instrument procedures:

KILN - Wilmington Air Park (19 nm NW)
KAMT - Alexander Salamon Airport (20 nm S)
I23 - Fayette County Airport (24 nm N)
I66 - Clinton Field Airport (24 nm NW)
KGEO - Brown County Airport (24 nm SW)
 
Loc | Ops | Rwys | IFR | FBO | Links
Com | Nav | Svcs | Stats | Notes
Area around KHOC (Highland County Airport)
 
Road maps at: MapQuest Bing Google
 
Aerial photo
WARNING: Photo may not be current or correct
Aerial photo of KHOC (Highland County Airport)
Photo courtesy of AirNav, LLC
Photo taken 24-Aug-2014
looking east.

Do you have a better or more recent aerial photo of Highland County Airport that you would like to share? If so, please send us your photo.

 
Sectional chart

 
Airport distance calculator
Flying to Highland County Airport? Find the distance to fly.

From to KHOC

Sunrise and sunset
Times for 27-Feb-2020
 Local
(UTC-5)
 Zulu
(UTC)
Morning civil twilight06:4411:44
Sunrise07:1112:11
Sunset18:2323:23
Evening civil twilight18:5023:50

Current date and time
Zulu (UTC)  27-Feb-2020 15:19:36
Local (UTC-5)  27-Feb-2020 10:19:36
 
METAR
KILN 
19nm NW 
271454Z AUTO 27012KT 10SM FEW035 OVC044 M04/M10 A3006 RMK AO2 SLP211 T10391100 50010
KI23 
24nm N 
271456Z AUTO 27014G25KT 10SM SCT045 M04/M10 A3005 RMK AO1
KRZT 
28nm NE 
271455Z AUTO 28014G25KT 10SM SCT033 SCT039 OVC048 M03/M10 A3008 RMK AO2 PWINO
KI69 
32nm W 
271456Z AUTO 26007G17KT 10SM BKN037 OVC043 M02/M08 A3012 RMK AO2 T10251082
KI68 
37nm NW 
271455Z AUTO 29010KT 10SM -SN BKN028 OVC043 M03/M05 A3009 RMK AO1 T10301054
TAF
KILN 
19nm NW 
271129Z 2712/2812 28016G25KT P6SM VCSH OVC035 FM271700 28018G29KT P6SM BKN035 FM272300 28008KT P6SM BKN050 FM280400 27007KT P6SM VCSH OVC050 FM281100 27006KT P6SM BKN050
NOTAMs
Click for the latest NOTAMs
NOTAMs are issued by the DoD/FAA and will open in a separate window not controlled by AirNav.

 

 
 

FBO, Fuel Providers, and Aircraft Ground Support

  
 Business Name 
 
 Contact 
 
 Services / Description 
 
Fuel Prices
 
Comments
  
Highland County Airport 937-393-9112
no information available

If you are affiliated with Highland County Airport and would like to show here your services, contact info, web link, logo, and more, click here
100LL
SS $4.96 
 Updated 26-Feb-2020
 
   write
SS=Self service
Update Fuel Prices
 

Would you like to see your business listed on this page?

 If your business provides an interesting product or service to pilots, flight crews, aircraft, or users of the Highland County Airport, you should consider listing it here.  To start the listing process, click on the button below
 
Add a business
 

Other Pages about Highland County Airport

Update a link
 
Copyright © AirNav, LLC. All rights reserved. Privacy Policy  Contact